Location: Poughquag
(41.6090°N, 73.6820°W)
Time: 14:49:03
(UTC-04:00)

Altair - Pass Details

Date: 06 June 2020
Orbit: 1501 x 1683 km, 47.2° (Epoch: 05 July)

Event Time Altitude Azimuth Distance (km) Brightness Sun altitude
Rises 02:24:12 0° 294° (WNW) 4,909 10.2 -22.3°
Reaches altitude 10° 02:27:21 10° 295° (WNW) 3,933 9.6 -22.1°
Maximum altitude 02:37:33 90° 19° (NNE) 1,686 7.6 -21.3°
Drops below altitude 10° 02:47:43 10° 118° (ESE) 3,916 9.6 -20.5°
Sets 02:50:50 0° 118° (ESE) 4,887 10.2 -20.2°
